Regional Weather Roundup
Issued by NWS

Home | Current Version | Previous Version | Graphics & Text | Print | Product List | Glossary On
Versions: 1 2 3 4 5 6 7 8 9 10 11 12 13 14 15 16 17 18 19 20 21 22 23 24 25 26 27 28 29 30 31 32 33 34 35 36 37 38 39 40 41 42 43 44 45 46 47 48 49 50
000
ASUS43 KMKX 230400
RWRWI

WISCONSIN REGIONAL WEATHER ROUNDUP
NATIONAL WEATHER SERVICE MILWAUKEE/SULLIVAN WI
1000 PM CST WED FEB 22 2017

NOTE: "FAIR" INDICATES FEW OR NO CLOUDS BELOW 12,000 FEET WITH NO
SIGNIFICANT WEATHER AND/OR OBSTRUCTIONS TO VISIBILITY.

WIZ001-002-006>008-014>016-023>028-230500-
NORTHWEST WISCONSIN

CITY           SKY/WX    TMP DP  RH WIND       PRES   REMARKS
SUPERIOR ARPT  LGT SNOW  32  32 100 CALM      29.74R
ASHLAND        CLOUDY    35  34  96 N10       29.70R WCI  27
HAYWARD        LGT RAIN  36  33  89 N6        29.68R WCI  31
SIREN          RAIN      37  34  89 N10       29.70R WCI  30
CUMBERLAND     CLOUDY    37  34  87 N18G29    29.64R WCI  27
RICE LAKE      CLOUDY    40  37  90 N12G17    29.66R WCI  33
CHETEK         CLOUDY    42  39  89 N8G17     29.62R
LADYSMITH      CLOUDY    42  41  93 NW15      29.61R
EAU CLAIRE     CLOUDY    47  41  80 W9        29.59R
MENOMONIE      PTCLDY    46  43  89 W9        29.62R
NEW RICHMOND   CLOUDY    40  33  78 N14       29.68R WCI  32
OSCEOLA        CLOUDY    41  36  84 NW12G18   29.71R
$$

WIZ003>005-009-010-017-018-230500-
NORTH CENTRAL WISCONSIN

CITY           SKY/WX    TMP DP  RH WIND       PRES   REMARKS
MANITOWISH WTR LGT SNOW  35  35 100 N5        29.58S WCI  31
ARBOR VITAE    CLOUDY    39  38  97 N10         N/A  WCI  32
WOODRUFF       CLOUDY    39  38  97 N10         N/A  WCI  32
RHINELANDER    FOG       41  41 100 CALM      29.56R VSB 3/4
EAGLE RIVER    FOG       39  39 100 N6        29.56F VSB 3/4 WCI  35
LAND O LAKES   LGT RAIN  36  36 100 N7        29.59F WCI  30
PHILLIPS       CLOUDY    39  39 100 NE7       29.55F WCI  34
TOMAHAWK       FOG       39  38  96 N3        29.56S VSB 1/2
MEDFORD        MOCLDY    35  35  97 CALM      29.55S FOG
MERRILL        NOT AVBL
$$

WIZ029-030-035-036-043>047-230500-
CENTRAL WISCONSIN

CITY           SKY/WX    TMP DP  RH WIND       PRES   REMARKS
WAUSAU         PTCLDY    38  35  89 CALM      29.54F
MOSINEE        NOT AVBL
MARSHFIELD     CLEAR     41  38  89 SW3       29.55S
STEVENS POINT  CLEAR     34  33  95 CALM      29.57R
WAUPACA        CLEAR     39  33  79 CALM      29.56R
WAUTOMA        CLEAR     37  35  92 W3        29.57R
WISC RAPIDS    CLEAR     35  34  96 CALM      29.57S
CAMP DOUGLAS   NOT AVBL
$$

WIZ011>013-019>022-031-037>040-048>050-230500-
NORTHEAST WISCONSIN

CITY           SKY/WX    TMP DP  RH WIND       PRES   REMARKS
ANTIGO         PTCLDY    34  33  97 CALM      29.55F
SHAWANO        CLEAR     40  36  84 CALM      29.56R
OCONTO         PTCLDY    37  37  97 CALM      29.53F
STURGEON BAY   CLOUDY    39  38  96 CALM      29.52F FOG
GREEN BAY      CLEAR     44  42  93 NW6       29.52S
MANITOWOC      CLEAR     41  39  93 CALM      29.52S FOG
APPLETON       PTCLDY    46  39  76 VRB5      29.52S
CLINTONVILLE   CLEAR     39  36  87 NW6       29.55R WCI  35
OSHKOSH        CLEAR     47  42  83 W5        29.53R
$$

WIZ032>034-041-042-053>061-230500-
SOUTHWEST WISCONSIN

CITY           SKY/WX    TMP DP  RH WIND       PRES   REMARKS
LA CROSSE      PTCLDY    49  43  80 NW8       29.61R
SPARTA         CLEAR     34  33  94 CALM      29.60S
VIROQUA        CLEAR     47  43  88 W8        29.61S
BOSCOBEL       CLEAR     52  43  71 S6        29.62R
PRAIRIE DU CHI CLEAR     50  42  75 CALM      29.63S
PLATTEVILLE    CLEAR     48  44  85 W9        29.63R
$$

WIZ056-057-062-063-064-067-068-230500-
SOUTH CENTRAL WISCONSIN

CITY           SKY/WX    TMP DP  RH WIND       PRES   REMARKS
REEDSBURG      CLEAR     49  42  75 W6        29.58R
BARABOO/DELLS  CLEAR     51  39  63 W5        29.57R
LONE ROCK      NOT AVBL
MINERAL POINT  CLEAR     52  45  76 W9        29.61R
MADISON        CLEAR     54  44  69 W7        29.57R
MIDDLETON      CLEAR     53  43  70 W9        29.58R
WATERTOWN      CLEAR     55  52  88 SW10      29.54S
MONROE         CLEAR     54  45  71 W16       29.60R
JANESVILLE     CLEAR     55  52  88 SW9       29.58R
$$

WIZ051-052-058>065-066-070>072-230500-
SOUTHEAST WISCONSIN

CITY           SKY/WX    TMP DP  RH WIND       PRES   REMARKS
MILWAUKEE      PTCLDY    59  52  77 SW17G25   29.55F
WAUKESHA       CLEAR     54  50  87 S12G18    29.56F
MILWAUKEE/TIMM CLEAR     57  48  72 SW13G22   29.54F
RACINE         CLEAR     59  52  77 SW16G23   29.58S
KENOSHA        PTCLDY    59  53  80 SW14G23   29.57F
FOND DU LAC    CLEAR     50  41  71 SW5       29.52S
SHEBOYGAN      CLEAR     42  40  92 S6        29.51F FOG
WEST BEND      CLEAR     55  52  88 SW13      29.52F
JUNEAU         CLEAR     53  50  90 SW7       29.55S
$$

LSZ147-162-230500-
LAKE SUPERIOR

STATION/POSITION TIME  TEMP    WIND        PRES    WAVE
                       AIR SEA DIR/SP/G            HT/PER
                 (UTC) (F)     (DEG/KT/KT) (MB)    (FT/S)
DEVILS ISLAND    0300   33     350/ 11/ 12 1006.7R
PORT WING        0340   33      10/  9/ 11 1007.1R
SAXON HARBOR     0330   34     360/ 11/ 12 1005.1R
$$

LMZ867-665-643>646-230500-
LAKE MICHIGAN

STATION/POSITION TIME  TEMP    WIND        PRES    WAVE
                       AIR SEA DIR/SP/G            HT/PER
                 (UTC) (F)     (DEG/KT/KT) (MB)    (FT/S)
CHAMBERS ISLAND  0340   35      10/  7/ 11 1000.0F
NORTHPORT PIER   0340   36     340/  3/  5 1000.7F
SISTER BAY       0320   40      20/  5/  7   N/A
KEWAUNEE LAKESHO 0330   37      CALM  /  2  999.4F
SHEBOYGAN LAKESH 0300   47     170/  2/  3 1000.2R
PORT WASHINGTON  0340   59     220/  7/ 15 1000.7F
MILWAUKEE LAKESH 0320   59     220/ 18/ 21   N/A
KENOSHA   LAKESH 0300   62     220/ 16/ 20 1002.0
$$

TC  - TEMPERATURE IN CELSIUS
VSB - VISIBILITY IN STATUTE MILES
WCI - WIND CHILL INDEX
HX  - HEAT INDEX




USA.gov is the U.S. government's official web portal to all federal, state and local government web resources and services.